Year,Month,Day,Hour,Minute,Value (Times are PST for temperature in C)
2006,05,03,00,00,6.20
2006,05,03,00,01,6.20
2006,05,03,00,02,6.20
2006,05,03,00,03,6.20
2006,05,03,00,04,6.20
2006,05,03,00,05,6.20
2006,05,03,00,06,6.20
2006,05,03,00,07,6.10
2006,05,03,00,08,6.10
2006,05,03,00,09,6.10
2006,05,03,00,10,6.00
2006,05,03,00,11,6.00
2006,05,03,00,12,5.90
2006,05,03,00,13,5.80
2006,05,03,00,14,5.80
2006,05,03,00,15,5.70
2006,05,03,00,16,5.70
2006,05,03,00,17,5.70
2006,05,03,00,18,5.70
2006,05,03,00,19,5.70
2006,05,03,00,20,5.60
2006,05,03,00,21,5.60
2006,05,03,00,22,5.60
2006,05,03,00,23,5.60
2006,05,03,00,24,5.50
2006,05,03,00,25,5.50
2006,05,03,00,26,5.50
2006,05,03,00,27,5.50
2006,05,03,00,28,5.40
2006,05,03,00,29,5.40
2006,05,03,00,30,5.30
2006,05,03,00,31,5.30
2006,05,03,00,32,5.30
2006,05,03,00,33,5.30
2006,05,03,00,34,5.30
2006,05,03,00,35,5.30
2006,05,03,00,36,5.30
2006,05,03,00,37,5.20
2006,05,03,00,38,5.20
2006,05,03,00,39,5.20
2006,05,03,00,40,5.10
2006,05,03,00,41,5.10
2006,05,03,00,42,5.10
2006,05,03,00,43,5.10
2006,05,03,00,44,5.10
2006,05,03,00,45,5.10
2006,05,03,00,46,5.10
2006,05,03,00,47,5.10
2006,05,03,00,48,5.10
2006,05,03,00,49,5.10
2006,05,03,00,50,5.10
2006,05,03,00,51,5.10
2006,05,03,00,52,5.10
2006,05,03,00,53,5.10
2006,05,03,00,54,5.10
2006,05,03,00,55,5.10
2006,05,03,00,56,5.10
2006,05,03,00,57,5.10
2006,05,03,00,58,5.10
2006,05,03,00,59,5.10
2006,05,03,01,00,5.10
2006,05,03,01,01,5.10
2006,05,03,01,02,5.20
2006,05,03,01,03,5.20
2006,05,03,01,04,5.20
2006,05,03,01,05,5.20
2006,05,03,01,06,5.20
2006,05,03,01,07,5.20
2006,05,03,01,08,5.20
2006,05,03,01,09,5.20
2006,05,03,01,10,5.20
2006,05,03,01,11,5.20
2006,05,03,01,12,5.10
2006,05,03,01,13,5.10
2006,05,03,01,14,5.10
2006,05,03,01,15,5.10
2006,05,03,01,16,5.10
2006,05,03,01,17,5.10
2006,05,03,01,18,5.10
2006,05,03,01,19,5.10
2006,05,03,01,20,5.10
2006,05,03,01,21,5.00
2006,05,03,01,22,4.90
2006,05,03,01,23,4.90
2006,05,03,01,24,4.90
2006,05,03,01,25,4.90
2006,05,03,01,26,4.90
2006,05,03,01,27,4.90
2006,05,03,01,28,4.90
2006,05,03,01,29,4.90
2006,05,03,01,30,4.90
2006,05,03,01,31,4.90
2006,05,03,01,32,4.90
2006,05,03,01,33,4.90
2006,05,03,01,34,4.90
2006,05,03,01,35,4.90
2006,05,03,01,36,4.80
2006,05,03,01,37,4.80
2006,05,03,01,38,4.80
2006,05,03,01,39,4.80
2006,05,03,01,40,4.80
2006,05,03,01,41,4.80
2006,05,03,01,42,4.70
2006,05,03,01,43,4.70
2006,05,03,01,44,4.70
2006,05,03,01,45,4.70
2006,05,03,01,46,4.60
2006,05,03,01,47,4.60
2006,05,03,01,48,4.60
2006,05,03,01,49,4.60
2006,05,03,01,50,4.50
2006,05,03,01,51,4.50
2006,05,03,01,52,4.40
2006,05,03,01,53,4.30
2006,05,03,01,54,4.20
2006,05,03,01,55,4.20
2006,05,03,01,56,4.20
2006,05,03,01,57,4.20
2006,05,03,01,58,4.20
2006,05,03,01,59,4.20
2006,05,03,02,00,4.20
2006,05,03,02,01,4.20
2006,05,03,02,02,4.20
2006,05,03,02,03,4.20
2006,05,03,02,04,4.20
2006,05,03,02,05,4.20
2006,05,03,02,06,4.20
2006,05,03,02,07,4.20
2006,05,03,02,08,4.20
2006,05,03,02,09,4.20
2006,05,03,02,10,4.20
2006,05,03,02,11,4.20
2006,05,03,02,12,4.20
2006,05,03,02,13,4.20
2006,05,03,02,14,4.20
2006,05,03,02,15,4.20
2006,05,03,02,16,4.20
2006,05,03,02,17,4.20
2006,05,03,02,18,4.30
2006,05,03,02,19,4.30
2006,05,03,02,20,4.30
2006,05,03,02,21,4.30
2006,05,03,02,22,4.30
2006,05,03,02,23,4.30
2006,05,03,02,24,4.30
2006,05,03,02,25,4.30
2006,05,03,02,26,4.30
2006,05,03,02,27,4.30
2006,05,03,02,28,4.30
2006,05,03,02,29,4.30
2006,05,03,02,30,4.30
2006,05,03,02,31,4.30
2006,05,03,02,32,4.30
2006,05,03,02,33,4.30
2006,05,03,02,34,4.30
2006,05,03,02,35,4.30
2006,05,03,02,36,4.30
2006,05,03,02,37,4.30
2006,05,03,02,38,4.30
2006,05,03,02,39,4.30
2006,05,03,02,40,4.30
2006,05,03,02,41,4.20
2006,05,03,02,42,4.20
2006,05,03,02,43,4.20
2006,05,03,02,44,4.10
2006,05,03,02,45,4.10
2006,05,03,02,46,4.10
2006,05,03,02,47,4.00
2006,05,03,02,48,4.00
2006,05,03,02,49,4.00
2006,05,03,02,50,4.00
2006,05,03,02,51,4.00
2006,05,03,02,52,4.00
2006,05,03,02,53,4.00
2006,05,03,02,54,4.00
2006,05,03,02,55,4.00
2006,05,03,02,56,3.90
2006,05,03,02,57,3.90
2006,05,03,02,58,3.90
2006,05,03,02,59,3.90
2006,05,03,03,00,3.90
2006,05,03,03,01,3.90
2006,05,03,03,02,3.80
2006,05,03,03,03,3.80
2006,05,03,03,04,3.80
2006,05,03,03,05,3.80
2006,05,03,03,06,3.80
2006,05,03,03,07,3.80
2006,05,03,03,08,3.80
2006,05,03,03,09,3.80
2006,05,03,03,10,3.80
2006,05,03,03,11,3.80
2006,05,03,03,12,3.80
2006,05,03,03,13,3.70
2006,05,03,03,14,3.70
2006,05,03,03,15,3.60
2006,05,03,03,16,3.50
2006,05,03,03,17,3.50
2006,05,03,03,18,3.50
2006,05,03,03,19,3.50
2006,05,03,03,20,3.50
2006,05,03,03,21,3.50
2006,05,03,03,22,3.50
2006,05,03,03,23,3.50
2006,05,03,03,24,3.50
2006,05,03,03,25,3.50
2006,05,03,03,26,3.50
2006,05,03,03,27,3.50
2006,05,03,03,28,3.50
2006,05,03,03,29,3.50
2006,05,03,03,30,3.50
2006,05,03,03,31,3.50
2006,05,03,03,32,3.50
2006,05,03,03,33,3.50
2006,05,03,03,34,3.50
2006,05,03,03,35,3.50
2006,05,03,03,36,3.50
2006,05,03,03,37,3.50
2006,05,03,03,38,3.50
2006,05,03,03,39,3.50
2006,05,03,03,40,3.50
2006,05,03,03,41,3.50
2006,05,03,03,42,3.60
2006,05,03,03,43,3.60
2006,05,03,03,44,3.60
2006,05,03,03,45,3.60
2006,05,03,03,46,3.60
2006,05,03,03,47,3.60
2006,05,03,03,48,3.50
2006,05,03,03,49,3.50
2006,05,03,03,50,3.50
2006,05,03,03,51,3.50
2006,05,03,03,52,3.40
2006,05,03,03,53,3.40
2006,05,03,03,54,3.40
2006,05,03,03,55,3.30
2006,05,03,03,56,3.30
2006,05,03,03,57,3.30
2006,05,03,03,58,3.30
2006,05,03,03,59,3.30
2006,05,03,04,00,3.30
2006,05,03,04,01,3.20
2006,05,03,04,02,3.20
2006,05,03,04,03,3.20
2006,05,03,04,04,3.20
2006,05,03,04,05,3.20
2006,05,03,04,06,3.20
2006,05,03,04,07,3.20
2006,05,03,04,08,3.20
2006,05,03,04,09,3.20
2006,05,03,04,10,3.20
2006,05,03,04,11,3.20
2006,05,03,04,12,3.20
2006,05,03,04,13,3.30
2006,05,03,04,14,3.30
2006,05,03,04,15,3.30
2006,05,03,04,16,3.30
2006,05,03,04,17,3.30
2006,05,03,04,18,3.30
2006,05,03,04,19,3.30
2006,05,03,04,20,3.30
2006,05,03,04,21,3.30
2006,05,03,04,22,3.30
2006,05,03,04,23,3.30
2006,05,03,04,24,3.30
2006,05,03,04,25,3.30
2006,05,03,04,26,3.30
2006,05,03,04,27,3.30
2006,05,03,04,28,3.30
2006,05,03,04,29,3.30
2006,05,03,04,30,3.30
2006,05,03,04,31,3.30
2006,05,03,04,32,3.20
2006,05,03,04,33,3.20
2006,05,03,04,34,3.20
2006,05,03,04,35,3.20
2006,05,03,04,36,3.20
2006,05,03,04,37,3.20
2006,05,03,04,38,3.20
2006,05,03,04,39,3.20
2006,05,03,04,40,3.20
2006,05,03,04,41,3.10
2006,05,03,04,42,3.10
2006,05,03,04,43,3.10
2006,05,03,04,44,3.10
2006,05,03,04,45,3.10
2006,05,03,04,46,3.10
2006,05,03,04,47,3.10
2006,05,03,04,48,3.10
2006,05,03,04,49,3.10
2006,05,03,04,50,3.10
2006,05,03,04,51,3.10
2006,05,03,04,52,3.10
2006,05,03,04,53,3.10
2006,05,03,04,54,3.10
2006,05,03,04,55,3.10
2006,05,03,04,56,3.10
2006,05,03,04,57,3.10
2006,05,03,04,58,3.10
2006,05,03,04,59,3.10
2006,05,03,05,00,3.10
2006,05,03,05,01,3.00
2006,05,03,05,02,2.90
2006,05,03,05,03,2.90
2006,05,03,05,04,2.90
2006,05,03,05,05,2.90
2006,05,03,05,06,2.90
2006,05,03,05,07,2.90
2006,05,03,05,08,2.90
2006,05,03,05,09,2.90
2006,05,03,05,10,2.90
2006,05,03,05,11,2.90
2006,05,03,05,12,2.90
2006,05,03,05,13,2.90
2006,05,03,05,14,2.90
2006,05,03,05,15,2.90
2006,05,03,05,16,2.90
2006,05,03,05,17,2.90
2006,05,03,05,18,2.90
2006,05,03,05,19,2.90
2006,05,03,05,20,2.90
2006,05,03,05,21,2.90
2006,05,03,05,22,2.80
2006,05,03,05,23,2.80
2006,05,03,05,24,2.80
2006,05,03,05,25,2.80
2006,05,03,05,26,2.80
2006,05,03,05,27,2.80
2006,05,03,05,28,2.80
2006,05,03,05,29,2.80
2006,05,03,05,30,2.80
2006,05,03,05,31,2.80
2006,05,03,05,32,2.80
2006,05,03,05,33,2.80
2006,05,03,05,34,2.70
2006,05,03,05,35,2.70
2006,05,03,05,36,2.70
2006,05,03,05,37,2.70
2006,05,03,05,38,2.70
2006,05,03,05,39,2.60
2006,05,03,05,40,2.60
2006,05,03,05,41,2.60
2006,05,03,05,42,2.50
2006,05,03,05,43,2.50
2006,05,03,05,44,2.50
2006,05,03,05,45,2.50
2006,05,03,05,46,2.50
2006,05,03,05,47,2.50
2006,05,03,05,48,2.50
2006,05,03,05,49,2.60
2006,05,03,05,50,2.60
2006,05,03,05,51,2.60
2006,05,03,05,52,2.60
2006,05,03,05,53,2.60
2006,05,03,05,54,2.70
2006,05,03,05,55,2.70
2006,05,03,05,56,2.70
2006,05,03,05,57,2.70
2006,05,03,05,58,2.70
2006,05,03,05,59,2.70
2006,05,03,06,00,2.70
2006,05,03,06,01,2.70
2006,05,03,06,02,2.70
2006,05,03,06,03,2.70
2006,05,03,06,04,2.70
2006,05,03,06,05,2.70
2006,05,03,06,06,2.70
2006,05,03,06,07,2.70
2006,05,03,06,08,2.80
2006,05,03,06,09,2.80
2006,05,03,06,10,2.80
2006,05,03,06,11,2.80
2006,05,03,06,12,2.80
2006,05,03,06,13,2.90
2006,05,03,06,14,2.90
2006,05,03,06,15,2.90
2006,05,03,06,16,2.90
2006,05,03,06,17,2.90
2006,05,03,06,18,2.90
2006,05,03,06,19,2.90
2006,05,03,06,20,2.90
2006,05,03,06,21,2.90
2006,05,03,06,22,3.00
2006,05,03,06,23,3.10
2006,05,03,06,24,3.10
2006,05,03,06,25,3.10
2006,05,03,06,26,3.10
2006,05,03,06,27,3.10
2006,05,03,06,28,3.10
2006,05,03,06,29,3.10
2006,05,03,06,30,3.10
2006,05,03,06,31,3.10
2006,05,03,06,32,3.10
2006,05,03,06,33,3.10
2006,05,03,06,34,3.10
2006,05,03,06,35,3.10
2006,05,03,06,36,3.10
2006,05,03,06,37,3.20
2006,05,03,06,38,3.20
2006,05,03,06,39,3.20
2006,05,03,06,40,3.20
2006,05,03,06,41,3.20
2006,05,03,06,42,3.30
2006,05,03,06,43,3.30
2006,05,03,06,44,3.30
2006,05,03,06,45,3.30
2006,05,03,06,46,3.30
2006,05,03,06,47,3.30
2006,05,03,06,48,3.30
2006,05,03,06,49,3.30
2006,05,03,06,50,3.40
2006,05,03,06,51,3.40
2006,05,03,06,52,3.40
2006,05,03,06,53,3.50
2006,05,03,06,54,3.50
2006,05,03,06,55,3.60
2006,05,03,06,56,3.60
2006,05,03,06,57,3.70
2006,05,03,06,58,3.80
2006,05,03,06,59,3.80
2006,05,03,07,00,3.90
2006,05,03,07,01,4.00
2006,05,03,07,02,4.00
2006,05,03,07,03,4.10
2006,05,03,07,04,4.20
2006,05,03,07,05,4.20
2006,05,03,07,06,4.20
2006,05,03,07,07,4.20
2006,05,03,07,08,4.30
2006,05,03,07,09,4.40
2006,05,03,07,10,4.40
2006,05,03,07,11,4.50
2006,05,03,07,12,4.60
2006,05,03,07,13,4.70
2006,05,03,07,14,4.70
2006,05,03,07,15,4.70
2006,05,03,07,16,4.80
2006,05,03,07,17,4.80
2006,05,03,07,18,4.90
2006,05,03,07,19,4.90
2006,05,03,07,20,5.00
2006,05,03,07,21,5.10
2006,05,03,07,22,5.10
2006,05,03,07,23,5.20
2006,05,03,07,24,5.40
2006,05,03,07,25,5.50
2006,05,03,07,26,5.50
2006,05,03,07,27,5.60
2006,05,03,07,28,5.80
2006,05,03,07,29,5.90
2006,05,03,07,30,5.90
2006,05,03,07,31,6.00
2006,05,03,07,32,6.10
2006,05,03,07,33,6.20
2006,05,03,07,34,6.30
2006,05,03,07,35,6.30
2006,05,03,07,36,6.40
2006,05,03,07,37,6.50
2006,05,03,07,38,6.60
2006,05,03,07,39,6.60
2006,05,03,07,40,6.70
2006,05,03,07,41,6.80
2006,05,03,07,42,7.00
2006,05,03,07,43,7.20
2006,05,03,07,44,7.30
2006,05,03,07,45,7.30
2006,05,03,07,46,7.40
2006,05,03,07,47,7.40
2006,05,03,07,48,7.50
2006,05,03,07,49,7.60
2006,05,03,07,50,7.80
2006,05,03,07,51,7.80
2006,05,03,07,52,7.90
2006,05,03,07,53,7.90
2006,05,03,07,54,8.00
2006,05,03,07,55,8.00
2006,05,03,07,56,8.00
2006,05,03,07,57,8.10
2006,05,03,07,58,8.10
2006,05,03,07,59,8.20
2006,05,03,08,00,8.20
2006,05,03,08,01,8.30
2006,05,03,08,02,8.50
2006,05,03,08,03,8.60
2006,05,03,08,04,8.70
2006,05,03,08,05,8.70
2006,05,03,08,06,8.80
2006,05,03,08,07,8.90
2006,05,03,08,08,8.90
2006,05,03,08,09,9.00
2006,05,03,08,10,9.00
2006,05,03,08,11,9.10
2006,05,03,08,12,9.20
2006,05,03,08,13,9.30
2006,05,03,08,14,9.40
2006,05,03,08,15,9.50
2006,05,03,08,16,9.60
2006,05,03,08,17,9.70
2006,05,03,08,18,9.80
2006,05,03,08,19,9.90
2006,05,03,08,20,9.90
2006,05,03,08,21,10.00
2006,05,03,08,22,10.10
2006,05,03,08,23,10.10
2006,05,03,08,24,10.20
2006,05,03,08,25,10.20
2006,05,03,08,26,10.20
2006,05,03,08,27,10.20
2006,05,03,08,28,10.30
2006,05,03,08,29,10.20
2006,05,03,08,30,10.20
2006,05,03,08,31,10.30
2006,05,03,08,32,10.30
2006,05,03,08,33,10.30
2006,05,03,08,34,10.40
2006,05,03,08,35,10.40
2006,05,03,08,36,10.50
2006,05,03,08,37,10.60
2006,05,03,08,38,10.70
2006,05,03,08,39,10.80
2006,05,03,08,40,10.90
2006,05,03,08,41,11.10
2006,05,03,08,42,11.20
2006,05,03,08,43,11.20
2006,05,03,08,44,11.40
2006,05,03,08,45,11.40
2006,05,03,08,46,11.60
2006,05,03,08,47,11.60
2006,05,03,08,48,11.70
2006,05,03,08,49,11.80
2006,05,03,08,50,11.80
2006,05,03,08,51,11.80
2006,05,03,08,52,11.80
2006,05,03,08,53,11.80
2006,05,03,08,54,11.80
2006,05,03,08,55,12.00
2006,05,03,08,56,12.20
2006,05,03,08,57,12.20
2006,05,03,08,58,12.20
2006,05,03,08,59,12.30
2006,05,03,09,00,12.30
2006,05,03,09,01,12.20
2006,05,03,09,02,12.20
2006,05,03,09,03,12.20
2006,05,03,09,04,12.30
2006,05,03,09,05,12.30
2006,05,03,09,06,12.30
2006,05,03,09,07,12.30
2006,05,03,09,08,12.30
2006,05,03,09,09,12.40
2006,05,03,09,10,12.50
2006,05,03,09,11,12.70
2006,05,03,09,12,12.80
2006,05,03,09,13,12.90
2006,05,03,09,14,13.00
2006,05,03,09,15,13.00
2006,05,03,09,16,13.00
2006,05,03,09,17,13.10
2006,05,03,09,18,13.10
2006,05,03,09,19,13.20
2006,05,03,09,20,13.30
2006,05,03,09,21,13.30
2006,05,03,09,22,13.30
2006,05,03,09,23,13.30
2006,05,03,09,24,13.30
2006,05,03,09,25,13.30
2006,05,03,09,26,13.30
2006,05,03,09,27,13.30
2006,05,03,09,28,13.50
2006,05,03,09,29,13.60
2006,05,03,09,30,13.60
2006,05,03,09,31,13.70
2006,05,03,09,32,13.70
2006,05,03,09,33,13.80
2006,05,03,09,34,13.90
2006,05,03,09,35,14.00
2006,05,03,09,36,14.00
2006,05,03,09,37,14.00
2006,05,03,09,38,13.90
2006,05,03,09,39,13.90
2006,05,03,09,40,13.90
2006,05,03,09,41,13.90
2006,05,03,09,42,13.80
2006,05,03,09,43,13.80
2006,05,03,09,44,13.70
2006,05,03,09,45,13.70
2006,05,03,09,46,13.70
2006,05,03,09,47,13.70
2006,05,03,09,48,13.70
2006,05,03,09,49,13.70
2006,05,03,09,50,13.70
2006,05,03,09,51,13.70
2006,05,03,09,52,13.70
2006,05,03,09,53,13.70
2006,05,03,09,54,13.70
2006,05,03,09,55,13.80
2006,05,03,09,56,13.80
2006,05,03,09,57,13.80
2006,05,03,09,58,13.80
2006,05,03,09,59,13.70
2006,05,03,10,00,13.70
2006,05,03,10,01,13.70
2006,05,03,10,02,13.80
2006,05,03,10,03,13.90
2006,05,03,10,04,14.00
2006,05,03,10,05,14.20
2006,05,03,10,06,14.40
2006,05,03,10,07,14.50
2006,05,03,10,08,14.50
2006,05,03,10,09,14.60
2006,05,03,10,10,14.60
2006,05,03,10,11,14.70
2006,05,03,10,12,14.80
2006,05,03,10,13,14.80
2006,05,03,10,14,14.70
2006,05,03,10,15,14.70
2006,05,03,10,16,14.70
2006,05,03,10,17,14.70
2006,05,03,10,18,14.70
2006,05,03,10,19,14.70
2006,05,03,10,20,14.70
2006,05,03,10,21,14.60
2006,05,03,10,22,14.50
2006,05,03,10,23,14.40
2006,05,03,10,24,14.30
2006,05,03,10,25,14.30
2006,05,03,10,26,14.40
2006,05,03,10,27,14.50
2006,05,03,10,28,14.50
2006,05,03,10,29,14.70
2006,05,03,10,30,14.80
2006,05,03,10,31,14.80
2006,05,03,10,32,14.80
2006,05,03,10,33,14.80
2006,05,03,10,34,14.90
2006,05,03,10,35,14.90
2006,05,03,10,36,14.90
2006,05,03,10,37,14.90
2006,05,03,10,38,15.00
2006,05,03,10,39,15.10
2006,05,03,10,40,15.10
2006,05,03,10,41,15.10
2006,05,03,10,42,15.10
2006,05,03,10,43,15.10
2006,05,03,10,44,15.10
2006,05,03,10,45,15.10
2006,05,03,10,46,15.20
2006,05,03,10,47,15.20
2006,05,03,10,48,15.20
2006,05,03,10,49,15.20
2006,05,03,10,50,15.10
2006,05,03,10,51,15.00
2006,05,03,10,52,15.00
2006,05,03,10,53,15.10
2006,05,03,10,54,15.20
2006,05,03,10,55,15.20
2006,05,03,10,56,15.30
2006,05,03,10,57,15.30
2006,05,03,10,58,15.30
2006,05,03,10,59,15.40
2006,05,03,11,00,15.50
2006,05,03,11,01,15.50
2006,05,03,11,02,15.60
2006,05,03,11,03,15.80
2006,05,03,11,04,15.80
2006,05,03,11,05,15.80
2006,05,03,11,06,15.80
2006,05,03,11,07,16.00
2006,05,03,11,08,16.10
2006,05,03,11,09,16.10
2006,05,03,11,10,15.90
2006,05,03,11,11,15.80
2006,05,03,11,12,15.80
2006,05,03,11,13,15.70
2006,05,03,11,14,15.70
2006,05,03,11,15,15.70
2006,05,03,11,16,15.80
2006,05,03,11,17,15.90
2006,05,03,11,18,16.00
2006,05,03,11,19,15.90
2006,05,03,11,20,15.90
2006,05,03,11,21,15.90
2006,05,03,11,22,15.90
2006,05,03,11,23,15.80
2006,05,03,11,24,15.80
2006,05,03,11,25,15.50
2006,05,03,11,26,15.40
2006,05,03,11,27,15.30
2006,05,03,11,28,15.20
2006,05,03,11,29,15.30
2006,05,03,11,30,15.30
2006,05,03,11,31,15.30
2006,05,03,11,32,15.30
2006,05,03,11,33,15.30
2006,05,03,11,34,15.20
2006,05,03,11,35,15.20
2006,05,03,11,36,15.30
2006,05,03,11,37,15.50
2006,05,03,11,38,15.60
2006,05,03,11,39,15.80
2006,05,03,11,40,15.80
2006,05,03,11,41,15.80
2006,05,03,11,42,15.80
2006,05,03,11,43,15.80
2006,05,03,11,44,15.80
2006,05,03,11,45,15.70
2006,05,03,11,46,15.80
2006,05,03,11,47,15.80
2006,05,03,11,48,15.80
2006,05,03,11,49,15.70
2006,05,03,11,50,15.60
2006,05,03,11,51,15.60
2006,05,03,11,52,15.60
2006,05,03,11,53,15.70
2006,05,03,11,54,15.60
2006,05,03,11,55,15.60
2006,05,03,11,56,15.60
2006,05,03,11,57,15.70
2006,05,03,11,58,15.80
2006,05,03,11,59,15.80
2006,05,03,12,00,15.80
2006,05,03,12,01,15.80
2006,05,03,12,02,15.70
2006,05,03,12,03,15.70
2006,05,03,12,04,15.90
2006,05,03,12,05,16.10
2006,05,03,12,06,16.20
2006,05,03,12,07,16.20
2006,05,03,12,08,16.20
2006,05,03,12,09,16.10
2006,05,03,12,10,16.10
2006,05,03,12,11,16.20
2006,05,03,12,12,16.20
2006,05,03,12,13,16.20
2006,05,03,12,14,16.40
2006,05,03,12,15,16.30
2006,05,03,12,16,16.30
2006,05,03,12,17,16.40
2006,05,03,12,18,16.50
2006,05,03,12,19,16.60
2006,05,03,12,20,16.60
2006,05,03,12,21,16.70
2006,05,03,12,22,16.60
2006,05,03,12,23,16.60
2006,05,03,12,24,16.70
2006,05,03,12,25,16.60
2006,05,03,12,26,16.60
2006,05,03,12,27,16.70
2006,05,03,12,28,16.80
2006,05,03,12,29,16.90
2006,05,03,12,30,17.00
2006,05,03,12,31,17.30
2006,05,03,12,32,17.50
2006,05,03,12,33,17.60
2006,05,03,12,34,17.70
2006,05,03,12,35,17.80
2006,05,03,12,36,17.90
2006,05,03,12,37,17.90
2006,05,03,12,38,18.00
2006,05,03,12,39,18.10
2006,05,03,12,40,18.10
2006,05,03,12,41,18.20
2006,05,03,12,42,18.10
2006,05,03,12,43,18.10
2006,05,03,12,44,18.00
2006,05,03,12,45,17.90
2006,05,03,12,46,17.70
2006,05,03,12,47,17.70
2006,05,03,12,48,17.80
2006,05,03,12,49,17.80
2006,05,03,12,50,17.90
2006,05,03,12,51,17.80
2006,05,03,12,52,17.80
2006,05,03,12,53,17.80
2006,05,03,12,54,17.90
2006,05,03,12,55,17.90
2006,05,03,12,56,18.00
2006,05,03,12,57,18.10
2006,05,03,12,58,18.10
2006,05,03,12,59,18.20
2006,05,03,13,00,18.20
2006,05,03,13,01,18.20
2006,05,03,13,02,18.10
2006,05,03,13,03,18.00
2006,05,03,13,04,18.00
2006,05,03,13,05,18.10
2006,05,03,13,06,18.10
2006,05,03,13,07,18.10
2006,05,03,13,08,18.10
2006,05,03,13,09,18.10
2006,05,03,13,10,18.20
2006,05,03,13,11,18.30
2006,05,03,13,12,18.30
2006,05,03,13,13,18.30
2006,05,03,13,14,18.20
2006,05,03,13,15,18.10
2006,05,03,13,16,18.10
2006,05,03,13,17,18.00
2006,05,03,13,18,17.90
2006,05,03,13,19,17.90
2006,05,03,13,20,18.00
2006,05,03,13,21,17.90
2006,05,03,13,22,18.00
2006,05,03,13,23,18.20
2006,05,03,13,24,18.20
2006,05,03,13,25,18.30
2006,05,03,13,26,18.30
2006,05,03,13,27,18.10
2006,05,03,13,28,18.10
2006,05,03,13,29,18.10
2006,05,03,13,30,18.10
2006,05,03,13,31,18.00
2006,05,03,13,32,17.90
2006,05,03,13,33,17.80
2006,05,03,13,34,17.80
2006,05,03,13,35,18.00
2006,05,03,13,36,18.20
2006,05,03,13,37,18.30
2006,05,03,13,38,18.30
2006,05,03,13,39,18.30
2006,05,03,13,40,18.30
2006,05,03,13,41,18.20
2006,05,03,13,42,18.30
2006,05,03,13,43,18.40
2006,05,03,13,44,18.50
2006,05,03,13,45,18.60
2006,05,03,13,46,18.60
2006,05,03,13,47,18.70
2006,05,03,13,48,18.80
2006,05,03,13,49,18.70
2006,05,03,13,50,18.60
2006,05,03,13,51,18.50
2006,05,03,13,52,18.40
2006,05,03,13,53,18.50
2006,05,03,13,54,18.50
2006,05,03,13,55,18.60
2006,05,03,13,56,18.60
2006,05,03,13,57,18.50
2006,05,03,13,58,18.50
2006,05,03,13,59,18.60
2006,05,03,14,00,18.80
2006,05,03,14,01,18.90
2006,05,03,14,02,18.90
2006,05,03,14,03,18.90
2006,05,03,14,04,19.00
2006,05,03,14,05,19.10
2006,05,03,14,06,19.10
2006,05,03,14,07,18.90
2006,05,03,14,08,18.90
2006,05,03,14,09,18.90
2006,05,03,14,10,18.90
2006,05,03,14,11,19.00
2006,05,03,14,12,19.10
2006,05,03,14,13,19.10
2006,05,03,14,14,19.10
2006,05,03,14,15,19.00
2006,05,03,14,16,18.90
2006,05,03,14,17,18.90
2006,05,03,14,18,18.90
2006,05,03,14,19,19.00
2006,05,03,14,20,19.10
2006,05,03,14,21,19.10
2006,05,03,14,22,19.10
2006,05,03,14,23,19.10
2006,05,03,14,24,19.20
2006,05,03,14,25,19.30
2006,05,03,14,26,19.20
2006,05,03,14,27,19.20
2006,05,03,14,28,19.30
2006,05,03,14,29,19.40
2006,05,03,14,30,19.40
2006,05,03,14,31,19.40
2006,05,03,14,32,19.50
2006,05,03,14,33,19.60
2006,05,03,14,34,19.70
2006,05,03,14,35,19.80
2006,05,03,14,36,19.80
2006,05,03,14,37,19.80
2006,05,03,14,38,19.80
2006,05,03,14,39,19.80
2006,05,03,14,40,19.70
2006,05,03,14,41,19.60
2006,05,03,14,42,19.60
2006,05,03,14,43,19.60
2006,05,03,14,44,19.60
2006,05,03,14,45,19.60
2006,05,03,14,46,19.70
2006,05,03,14,47,19.70
2006,05,03,14,48,19.70
2006,05,03,14,49,19.80
2006,05,03,14,50,19.70
2006,05,03,14,51,19.40
2006,05,03,14,52,19.20
2006,05,03,14,53,18.90
2006,05,03,14,54,18.70
2006,05,03,14,55,18.60
2006,05,03,14,56,18.50
2006,05,03,14,57,18.40
2006,05,03,14,58,18.40
2006,05,03,14,59,18.40
2006,05,03,15,00,18.30
2006,05,03,15,01,18.20
2006,05,03,15,02,18.10
2006,05,03,15,03,17.90
2006,05,03,15,04,17.80
2006,05,03,15,05,17.70
2006,05,03,15,06,17.80
2006,05,03,15,07,17.80
2006,05,03,15,08,17.90
2006,05,03,15,09,17.80
2006,05,03,15,10,17.70
2006,05,03,15,11,17.70
2006,05,03,15,12,17.70
2006,05,03,15,13,17.70
2006,05,03,15,14,17.70
2006,05,03,15,15,17.90
2006,05,03,15,16,17.90
2006,05,03,15,17,17.90
2006,05,03,15,18,17.90
2006,05,03,15,19,17.80
2006,05,03,15,20,17.70
2006,05,03,15,21,17.80
2006,05,03,15,22,17.80
2006,05,03,15,23,17.80
2006,05,03,15,24,17.70
2006,05,03,15,25,17.50
2006,05,03,15,26,17.30
2006,05,03,15,27,17.10
2006,05,03,15,28,16.90
2006,05,03,15,29,16.90
2006,05,03,15,30,16.90
2006,05,03,15,31,16.90
2006,05,03,15,32,17.00
2006,05,03,15,33,17.00
2006,05,03,15,34,17.20
2006,05,03,15,35,17.30
2006,05,03,15,36,17.30
2006,05,03,15,37,17.50
2006,05,03,15,38,17.60
2006,05,03,15,39,17.80
2006,05,03,15,40,17.90
2006,05,03,15,41,18.00
2006,05,03,15,42,17.90
2006,05,03,15,43,17.90
2006,05,03,15,44,17.90
2006,05,03,15,45,17.90
2006,05,03,15,46,17.80
2006,05,03,15,47,17.50
2006,05,03,15,48,17.40
2006,05,03,15,49,17.40
2006,05,03,15,50,17.50
2006,05,03,15,51,17.70
2006,05,03,15,52,18.00
2006,05,03,15,53,18.30
2006,05,03,15,54,18.40
2006,05,03,15,55,18.50
2006,05,03,15,56,18.60
2006,05,03,15,57,18.80
2006,05,03,15,58,18.90
2006,05,03,15,59,19.10
2006,05,03,16,00,19.30
2006,05,03,16,01,19.50
2006,05,03,16,02,19.50
2006,05,03,16,03,19.60
2006,05,03,16,04,19.70
2006,05,03,16,05,19.90
2006,05,03,16,06,20.00
2006,05,03,16,07,20.20
2006,05,03,16,08,20.20
2006,05,03,16,09,20.20
2006,05,03,16,10,20.20
2006,05,03,16,11,20.20
2006,05,03,16,12,20.20
2006,05,03,16,13,20.30
2006,05,03,16,14,20.20
2006,05,03,16,15,20.20
2006,05,03,16,16,20.20
2006,05,03,16,17,20.20
2006,05,03,16,18,20.20
2006,05,03,16,19,20.20
2006,05,03,16,20,20.10
2006,05,03,16,21,20.10
2006,05,03,16,22,20.10
2006,05,03,16,23,20.10
2006,05,03,16,24,20.10
2006,05,03,16,25,20.10
2006,05,03,16,26,20.10
2006,05,03,16,27,20.00
2006,05,03,16,28,20.10
2006,05,03,16,29,20.10
2006,05,03,16,30,20.20
2006,05,03,16,31,20.20
2006,05,03,16,32,20.20
2006,05,03,16,33,20.20
2006,05,03,16,34,20.20
2006,05,03,16,35,20.20
2006,05,03,16,36,20.20
2006,05,03,16,37,20.20
2006,05,03,16,38,20.20
2006,05,03,16,39,20.20
2006,05,03,16,40,20.20
2006,05,03,16,41,20.10
2006,05,03,16,42,20.10
2006,05,03,16,43,20.10
2006,05,03,16,44,20.10
2006,05,03,16,45,20.10
2006,05,03,16,46,20.10
2006,05,03,16,47,20.20
2006,05,03,16,48,20.20
2006,05,03,16,49,20.20
2006,05,03,16,50,20.20
2006,05,03,16,51,20.20
2006,05,03,16,52,20.20
2006,05,03,16,53,20.10
2006,05,03,16,54,20.10
2006,05,03,16,55,20.00
2006,05,03,16,56,20.10
2006,05,03,16,57,20.10
2006,05,03,16,58,20.10
2006,05,03,16,59,20.10
2006,05,03,17,00,20.20
2006,05,03,17,01,20.20
2006,05,03,17,02,20.20
2006,05,03,17,03,20.20
2006,05,03,17,04,20.20
2006,05,03,17,05,20.20
2006,05,03,17,06,20.20
2006,05,03,17,07,20.20
2006,05,03,17,08,20.20
2006,05,03,17,09,20.20
2006,05,03,17,10,20.20
2006,05,03,17,11,20.00
2006,05,03,17,12,19.90
2006,05,03,17,13,19.90
2006,05,03,17,14,19.90
2006,05,03,17,15,19.90
2006,05,03,17,16,19.90
2006,05,03,17,17,19.90
2006,05,03,17,18,20.00
2006,05,03,17,19,20.10
2006,05,03,17,20,20.10
2006,05,03,17,21,20.20
2006,05,03,17,22,20.10
2006,05,03,17,23,20.00
2006,05,03,17,24,19.90
2006,05,03,17,25,19.90
2006,05,03,17,26,19.90
2006,05,03,17,27,19.90
2006,05,03,17,28,19.90
2006,05,03,17,29,19.90
2006,05,03,17,30,20.00
2006,05,03,17,31,20.10
2006,05,03,17,32,20.20
2006,05,03,17,33,20.20
2006,05,03,17,34,20.20
2006,05,03,17,35,20.20
2006,05,03,17,36,20.30
2006,05,03,17,37,20.40
2006,05,03,17,38,20.30
2006,05,03,17,39,20.30
2006,05,03,17,40,20.30
2006,05,03,17,41,20.20